Time,TemperatureF,DewpointF,PressureIn,WindDirection,WindDirectionDegrees,WindSpeedMPH,WindSpeedGustMPH,Humidity,HourlyPrecipIn,Conditions,Clouds,dailyrainin,SoftwareType,DateUTC
2013-02-15 00:00:00,46.2,42.8,30.09,SSW,209,0.0,0.0,88,0.00,,,0.01,WeatherCatV1.02B3,2013-02-15 06:00:00,
2013-02-15 00:05:00,46.1,42.7,30.09,SSW,209,0.0,0.0,88,0.00,,,0.00,WeatherCatV1.02B3,2013-02-15 06:05:00,
2013-02-15 00:10:00,46.1,42.7,30.09,SSW,209,0.0,0.0,88,0.00,,,0.00,WeatherCatV1.02B3,2013-02-15 06:10:00,
2013-02-15 00:15:00,46.0,42.9,30.09,SSW,209,0.0,0.0,89,0.00,,,0.00,WeatherCatV1.02B3,2013-02-15 06:15:00,
2013-02-15 00:20:00,46.0,42.9,30.09,SSW,209,0.0,0.0,89,0.00,,,0.00,WeatherCatV1.02B3,2013-02-15 06:20:00,
2013-02-15 00:25:00,45.9,42.8,30.09,SSW,209,0.0,0.0,89,0.00,,,0.00,WeatherCatV1.02B3,2013-02-15 06:25:00,
2013-02-15 00:30:00,45.8,42.7,30.09,SSW,207,0.0,0.0,89,0.00,,,0.00,WeatherCatV1.02B3,2013-02-15 06:30:00,
2013-02-15 00:35:00,45.6,42.5,30.09,SSW,207,0.0,0.0,89,0.00,,,0.00,WeatherCatV1.02B3,2013-02-15 06:35:00,
2013-02-15 00:40:00,45.5,42.4,30.09,SSW,207,0.0,0.0,89,0.00,,,0.00,WeatherCatV1.02B3,2013-02-15 06:40:00,
2013-02-15 00:45:00,45.4,42.6,30.09,SSW,207,0.0,0.0,90,0.00,,,0.00,WeatherCatV1.02B3,2013-02-15 06:45:00,
2013-02-15 00:50:00,45.3,42.5,30.09,SSW,207,0.0,0.0,90,0.00,,,0.00,WeatherCatV1.02B3,2013-02-15 06:50:00,
2013-02-15 00:55:00,45.3,42.5,30.09,SSW,207,0.0,0.0,90,0.00,,,0.00,WeatherCatV1.02B3,2013-02-15 06:55:00,
2013-02-15 01:00:00,45.3,42.5,30.09,SSW,207,0.0,0.0,90,0.00,,,0.00,WeatherCatV1.02B3,2013-02-15 07:00:00,
2013-02-15 01:05:00,45.3,42.3,30.09,SSW,207,0.0,0.0,89,0.00,,,0.00,WeatherCatV1.02B3,2013-02-15 07:05:00,
2013-02-15 01:10:00,45.3,42.5,30.09,SSW,207,0.0,0.0,90,0.00,,,0.00,WeatherCatV1.02B3,2013-02-15 07:10:00,
2013-02-15 01:15:00,45.2,42.4,30.09,SSW,207,0.0,0.0,90,0.00,,,0.00,WeatherCatV1.02B3,2013-02-15 07:15:00,
2013-02-15 01:20:00,45.2,42.2,30.09,SSW,207,0.0,0.0,89,0.00,,,0.00,WeatherCatV1.02B3,2013-02-15 07:20:00,
2013-02-15 01:25:00,44.8,41.5,30.09,SSW,207,0.0,0.0,88,0.00,,,0.00,WeatherCatV1.02B3,2013-02-15 07:25:00,
2013-02-15 01:30:00,44.3,41.0,30.09,SSW,207,0.0,0.0,88,0.00,,,0.00,WeatherCatV1.02B3,2013-02-15 07:30:00,
2013-02-15 01:35:00,44.2,41.5,30.09,SSW,207,0.0,0.0,90,0.00,,,0.00,WeatherCatV1.02B3,2013-02-15 07:35:00,
2013-02-15 01:40:00,44.3,41.8,30.09,SSW,207,0.0,0.0,91,0.00,,,0.00,WeatherCatV1.02B3,2013-02-15 07:40:00,
2013-02-15 01:45:00,44.3,41.6,30.10,SSW,207,0.0,0.0,90,0.00,,,0.00,WeatherCatV1.02B3,2013-02-15 07:45:00,
2013-02-15 01:50:00,43.8,40.8,30.10,SSW,207,0.0,0.0,89,0.00,,,0.00,WeatherCatV1.02B3,2013-02-15 07:50:00,
2013-02-15 01:55:00,43.4,40.7,30.10,SSW,207,0.0,0.0,90,0.00,,,0.00,WeatherCatV1.02B3,2013-02-15 07:55:00,
2013-02-15 02:00:00,43.4,40.7,30.10,SSW,207,0.0,0.0,90,0.00,,,0.00,WeatherCatV1.02B3,2013-02-15 08:00:00,
2013-02-15 02:05:00,43.4,40.7,30.11,SSW,207,0.0,0.0,90,0.00,,,0.00,WeatherCatV1.02B3,2013-02-15 08:05:00,
2013-02-15 02:10:00,43.8,41.1,30.11,WNW,290,4.0,6.0,90,0.00,,,0.00,WeatherCatV1.02B3,2013-02-15 08:10:00,
2013-02-15 02:15:00,43.9,40.6,30.12,NW,304,4.0,4.0,88,0.00,,,0.00,WeatherCatV1.02B3,2013-02-15 08:15:00,
2013-02-15 02:20:00,43.9,40.9,30.12,WNW,303,0.0,0.0,89,0.00,,,0.00,WeatherCatV1.02B3,2013-02-15 08:20:00,
2013-02-15 02:25:00,44.1,40.8,30.12,WNW,303,0.0,0.0,88,0.00,,,0.00,WeatherCatV1.02B3,2013-02-15 08:25:00,
2013-02-15 02:30:00,44.5,41.2,30.12,WNW,302,0.0,3.0,88,0.00,,,0.00,WeatherCatV1.02B3,2013-02-15 08:30:00,
2013-02-15 02:35:00,44.7,41.1,30.12,WNW,302,0.0,0.0,87,0.00,,,0.00,WeatherCatV1.02B3,2013-02-15 08:35:00,
2013-02-15 02:40:00,44.6,40.7,30.12,WNW,302,0.0,0.0,86,0.00,,,0.00,WeatherCatV1.02B3,2013-02-15 08:40:00,
2013-02-15 02:45:00,44.1,40.2,30.12,WNW,302,0.0,0.0,86,0.00,,,0.00,WeatherCatV1.02B3,2013-02-15 08:45:00,
2013-02-15 02:50:00,43.8,40.2,30.12,WNW,302,0.0,0.0,87,0.00,,,0.00,WeatherCatV1.02B3,2013-02-15 08:50:00,
2013-02-15 02:55:00,43.7,40.4,30.12,WNW,302,0.0,0.0,88,0.00,,,0.00,WeatherCatV1.02B3,2013-02-15 08:55:00,
2013-02-15 03:00:00,43.8,40.2,30.12,WNW,302,0.0,0.0,87,0.00,,,0.00,WeatherCatV1.02B3,2013-02-15 09:00:00,
2013-02-15 03:05:00,43.7,40.1,30.12,WNW,302,0.0,0.0,87,0.00,,,0.00,WeatherCatV1.02B3,2013-02-15 09:05:00,
2013-02-15 03:10:00,43.6,40.0,30.12,WNW,302,0.0,0.0,87,0.00,,,0.00,WeatherCatV1.02B3,2013-02-15 09:10:00,
2013-02-15 03:15:00,42.9,39.3,30.13,WNW,302,0.0,0.0,87,0.00,,,0.00,WeatherCatV1.02B3,2013-02-15 09:15:00,
2013-02-15 03:20:00,42.6,39.0,30.13,WNW,302,0.0,0.0,87,0.00,,,0.00,WeatherCatV1.02B3,2013-02-15 09:20:00,
2013-02-15 03:25:00,42.4,39.4,30.13,WNW,302,0.0,0.0,89,0.00,,,0.00,WeatherCatV1.02B3,2013-02-15 09:25:00,
2013-02-15 03:30:00,42.1,39.1,30.13,WNW,302,0.0,0.0,89,0.00,,,0.00,WeatherCatV1.02B3,2013-02-15 09:30:00,
2013-02-15 03:35:00,42.0,39.3,30.13,WNW,302,0.0,0.0,90,0.00,,,0.00,WeatherCatV1.02B3,2013-02-15 09:35:00,
2013-02-15 03:40:00,42.1,39.4,30.13,WNW,302,0.0,0.0,90,0.00,,,0.00,WeatherCatV1.02B3,2013-02-15 09:40:00,
2013-02-15 03:45:00,42.2,39.5,30.13,WNW,302,0.0,0.0,90,0.00,,,0.00,WeatherCatV1.02B3,2013-02-15 09:45:00,
2013-02-15 03:50:00,42.3,39.6,30.13,WNW,302,0.0,0.0,90,0.00,,,0.00,WeatherCatV1.02B3,2013-02-15 09:50:00,
2013-02-15 03:55:00,42.4,39.4,30.13,WNW,302,0.0,0.0,89,0.00,,,0.00,WeatherCatV1.02B3,2013-02-15 09:55:00,
2013-02-15 04:00:00,42.3,39.3,30.13,WNW,302,0.0,0.0,89,0.00,,,0.00,WeatherCatV1.02B3,2013-02-15 10:00:00,
2013-02-15 04:05:00,41.9,38.6,30.14,WNW,302,0.0,0.0,88,0.00,,,0.00,WeatherCatV1.02B3,2013-02-15 10:05:00,
2013-02-15 04:10:00,41.3,38.3,30.13,WNW,302,0.0,0.0,89,0.00,,,0.00,WeatherCatV1.02B3,2013-02-15 10:10:00,
2013-02-15 04:15:00,40.9,37.9,30.14,WNW,302,0.0,0.0,89,0.00,,,0.00,WeatherCatV1.02B3,2013-02-15 10:15:00,
2013-02-15 04:20:00,40.6,37.9,30.14,WNW,302,0.0,0.0,90,0.00,,,0.00,WeatherCatV1.02B3,2013-02-15 10:20:00,
2013-02-15 04:25:00,40.4,38.0,30.14,WNW,302,0.0,0.0,91,0.00,,,0.00,WeatherCatV1.02B3,2013-02-15 10:25:00,
2013-02-15 04:30:00,40.5,38.1,30.14,WNW,302,0.0,0.0,91,0.00,,,0.00,WeatherCatV1.02B3,2013-02-15 10:30:00,
2013-02-15 04:35:00,40.7,38.6,30.14,NW,321,3.0,5.0,92,0.00,,,0.00,WeatherCatV1.02B3,2013-02-15 10:35:00,
2013-02-15 04:40:00,41.4,39.3,30.15,NW,324,4.0,5.0,92,0.00,,,0.00,WeatherCatV1.02B3,2013-02-15 10:40:00,
2013-02-15 04:45:00,41.7,39.0,30.15,NW,323,5.0,6.0,90,0.00,,,0.00,WeatherCatV1.02B3,2013-02-15 10:45:00,
2013-02-15 04:50:00,42.0,39.3,30.15,NW,323,6.0,8.0,90,0.00,,,0.00,WeatherCatV1.02B3,2013-02-15 10:50:00,
2013-02-15 04:55:00,42.6,39.3,30.15,NNW,331,9.0,9.0,88,0.00,,,0.00,WeatherCatV1.02B3,2013-02-15 10:55:00,
2013-02-15 05:00:00,43.1,39.2,30.16,NW,325,6.0,9.0,86,0.00,,,0.00,WeatherCatV1.02B3,2013-02-15 11:00:00,
2013-02-15 05:05:00,43.4,38.9,30.16,NNW,343,6.0,10.0,84,0.00,,,0.00,WeatherCatV1.02B3,2013-02-15 11:05:00,
2013-02-15 05:10:00,44.0,38.9,30.16,NNW,333,11.0,11.0,82,0.00,,,0.00,WeatherCatV1.02B3,2013-02-15 11:10:00,
2013-02-15 05:15:00,44.4,38.6,30.16,NNW,334,9.0,11.0,80,0.00,,,0.00,WeatherCatV1.02B3,2013-02-15 11:15:00,
2013-02-15 05:20:00,44.4,38.3,30.16,NNW,340,8.0,11.0,79,0.00,,,0.00,WeatherCatV1.02B3,2013-02-15 11:20:00,
2013-02-15 05:25:00,44.6,38.2,30.16,NNW,345,8.0,12.0,78,0.00,,,0.00,WeatherCatV1.02B3,2013-02-15 11:25:00,
2013-02-15 05:30:00,44.6,38.2,30.16,NNW,344,10.0,13.0,78,0.00,,,0.00,WeatherCatV1.02B3,2013-02-15 11:30:00,
2013-02-15 05:35:00,44.6,37.8,30.16,NNW,342,9.0,12.0,77,0.00,,,0.00,WeatherCatV1.02B3,2013-02-15 11:35:00,
2013-02-15 05:40:00,44.6,37.8,30.16,NNW,348,9.0,11.0,77,0.00,,,0.00,WeatherCatV1.02B3,2013-02-15 11:40:00,
2013-02-15 05:45:00,44.6,37.8,30.17,NNW,343,6.0,10.0,77,0.00,,,0.00,WeatherCatV1.02B3,2013-02-15 11:45:00,
2013-02-15 05:50:00,44.4,38.0,30.17,NNW,344,11.0,11.0,78,0.00,,,0.00,WeatherCatV1.02B3,2013-02-15 11:50:00,
2013-02-15 05:55:00,44.2,37.8,30.17,NNW,342,8.0,9.0,78,0.00,,,0.00,WeatherCatV1.02B3,2013-02-15 11:55:00,
2013-02-15 06:00:00,44.1,37.7,30.17,NNW,339,7.0,9.0,78,0.00,,,0.00,WeatherCatV1.02B3,2013-02-15 12:00:00,
2013-02-15 06:05:00,43.9,37.5,30.17,NNW,346,9.0,10.0,78,0.00,,,0.00,WeatherCatV1.02B3,2013-02-15 12:05:00,
2013-02-15 06:10:00,43.7,37.3,30.17,North,355,11.0,11.0,78,0.00,,,0.00,WeatherCatV1.02B3,2013-02-15 12:10:00,
2013-02-15 06:15:00,43.6,37.5,30.18,North,355,8.0,9.0,79,0.00,,,0.00,WeatherCatV1.02B3,2013-02-15 12:15:00,
2013-02-15 06:20:00,43.6,37.5,30.18,NNW,348,6.0,10.0,79,0.00,,,0.00,WeatherCatV1.02B3,2013-02-15 12:20:00,
2013-02-15 06:25:00,43.5,37.4,30.18,North,350,7.0,10.0,79,0.00,,,0.00,WeatherCatV1.02B3,2013-02-15 12:25:00,
2013-02-15 06:30:00,43.4,37.3,30.18,NNW,346,8.0,10.0,79,0.00,,,0.00,WeatherCatV1.02B3,2013-02-15 12:30:00,
2013-02-15 06:35:00,43.5,37.4,30.18,NNW,345,6.0,11.0,79,0.00,,,0.00,WeatherCatV1.02B3,2013-02-15 12:35:00,
2013-02-15 06:40:00,43.5,37.4,30.18,NNW,347,8.0,11.0,79,0.00,,,0.00,WeatherCatV1.02B3,2013-02-15 12:40:00,
2013-02-15 06:45:00,43.4,37.3,30.18,NNW,332,7.0,11.0,79,0.00,,,0.00,WeatherCatV1.02B3,2013-02-15 12:45:00,
2013-02-15 06:50:00,43.3,37.2,30.18,North,0,8.0,10.0,79,0.00,,,0.00,WeatherCatV1.02B3,2013-02-15 12:50:00,
2013-02-15 06:55:00,43.3,37.2,30.18,North,5,4.0,7.0,79,0.00,,,0.00,WeatherCatV1.02B3,2013-02-15 12:55:00,
2013-02-15 07:00:00,43.3,37.2,30.18,North,355,5.0,5.0,79,0.00,,,0.00,WeatherCatV1.02B3,2013-02-15 13:00:00,
2013-02-15 07:05:00,43.2,37.1,30.19,North,350,6.0,6.0,79,0.00,,,0.00,WeatherCatV1.02B3,2013-02-15 13:05:00,
2013-02-15 07:10:00,43.1,37.4,30.19,NNW,343,6.0,7.0,80,0.00,,,0.00,WeatherCatV1.02B3,2013-02-15 13:10:00,
2013-02-15 07:15:00,43.2,37.5,30.20,NNW,335,7.0,10.0,80,0.00,,,0.00,WeatherCatV1.02B3,2013-02-15 13:15:00,
2013-02-15 07:20:00,43.3,37.6,30.20,NNW,337,7.0,10.0,80,0.00,,,0.00,WeatherCatV1.02B3,2013-02-15 13:20:00,
2013-02-15 07:25:00,43.6,37.5,30.20,NNW,332,6.0,10.0,79,0.00,,,0.00,WeatherCatV1.02B3,2013-02-15 13:25:00,
2013-02-15 07:30:00,43.7,37.6,30.21,NNW,343,8.0,12.0,79,0.00,,,0.00,WeatherCatV1.02B3,2013-02-15 13:30:00,
2013-02-15 07:35:00,44.0,37.6,30.20,NNW,335,7.0,11.0,78,0.00,,,0.00,WeatherCatV1.02B3,2013-02-15 13:35:00,
2013-02-15 07:40:00,44.3,37.9,30.21,NNW,338,6.0,10.0,78,0.00,,,0.00,WeatherCatV1.02B3,2013-02-15 13:40:00,
2013-02-15 07:45:00,44.6,38.2,30.21,NNW,342,10.0,11.0,78,0.00,,,0.00,WeatherCatV1.02B3,2013-02-15 13:45:00,
2013-02-15 07:50:00,44.8,38.4,30.21,NNW,339,6.0,9.0,78,0.00,,,0.00,WeatherCatV1.02B3,2013-02-15 13:50:00,
2013-02-15 07:55:00,45.0,38.2,30.21,NNW,342,8.0,10.0,77,0.00,,,0.00,WeatherCatV1.02B3,2013-02-15 13:55:00,
2013-02-15 08:00:00,45.4,38.3,30.22,NNW,341,7.0,10.0,76,0.00,,,0.00,WeatherCatV1.02B3,2013-02-15 14:00:00,
2013-02-15 08:05:00,45.9,38.4,30.22,NNW,339,13.0,14.0,75,0.00,,,0.00,WeatherCatV1.02B3,2013-02-15 14:05:00,
2013-02-15 08:10:00,46.1,38.6,30.22,NNW,330,12.0,13.0,75,0.00,,,0.00,WeatherCatV1.02B3,2013-02-15 14:10:00,
2013-02-15 08:15:00,46.3,38.8,30.22,NNW,333,13.0,15.0,75,0.00,,,0.00,WeatherCatV1.02B3,2013-02-15 14:15:00,
2013-02-15 08:20:00,46.5,39.3,30.22,NNW,342,14.0,17.0,76,0.00,,,0.00,WeatherCatV1.02B3,2013-02-15 14:20:00,
2013-02-15 08:25:00,46.6,39.4,30.23,NNW,344,10.0,13.0,76,0.00,,,0.00,WeatherCatV1.02B3,2013-02-15 14:25:00,
2013-02-15 08:30:00,46.8,39.3,30.22,North,0,9.0,13.0,75,0.00,,,0.00,WeatherCatV1.02B3,2013-02-15 14:30:00,
2013-02-15 08:35:00,47.0,39.5,30.23,NNW,340,13.0,14.0,75,0.00,,,0.00,WeatherCatV1.02B3,2013-02-15 14:35:00,
2013-02-15 08:40:00,47.3,40.1,30.23,NNW,345,14.0,14.0,76,0.00,,,0.00,WeatherCatV1.02B3,2013-02-15 14:40:00,
2013-02-15 08:45:00,47.6,40.4,30.22,NNW,340,12.0,12.0,76,0.00,,,0.00,WeatherCatV1.02B3,2013-02-15 14:45:00,
2013-02-15 08:50:00,47.6,39.7,30.22,North,349,12.0,17.0,74,0.00,,,0.00,WeatherCatV1.02B3,2013-02-15 14:50:00,
2013-02-15 08:55:00,47.7,39.8,30.22,North,355,9.0,13.0,74,0.00,,,0.00,WeatherCatV1.02B3,2013-02-15 14:55:00,
2013-02-15 09:00:00,47.8,39.9,30.22,North,5,8.0,10.0,74,0.00,,,0.00,WeatherCatV1.02B3,2013-02-15 15:00:00,
2013-02-15 09:05:00,48.1,40.2,30.22,North,355,8.0,10.0,74,0.00,,,0.00,WeatherCatV1.02B3,2013-02-15 15:05:00,
2013-02-15 09:10:00,48.6,41.4,30.23,NNW,342,6.0,9.0,76,0.00,,,0.00,WeatherCatV1.02B3,2013-02-15 15:10:00,
2013-02-15 09:15:00,48.6,41.0,30.22,NNW,339,9.0,12.0,75,0.00,,,0.00,WeatherCatV1.02B3,2013-02-15 15:15:00,
2013-02-15 09:20:00,48.8,41.9,30.22,NNW,338,8.0,11.0,77,0.00,,,0.00,WeatherCatV1.02B3,2013-02-15 15:20:00,
2013-02-15 09:25:00,48.9,41.7,30.22,NNW,342,8.0,11.0,76,0.00,,,0.00,WeatherCatV1.02B3,2013-02-15 15:25:00,
2013-02-15 09:30:00,49.0,41.8,30.22,NNW,338,5.0,8.0,76,0.00,,,0.00,WeatherCatV1.02B3,2013-02-15 15:30:00,
2013-02-15 09:35:00,49.3,41.7,30.22,NW,315,7.0,9.0,75,0.00,,,0.00,WeatherCatV1.02B3,2013-02-15 15:35:00,
2013-02-15 09:40:00,49.6,42.7,30.23,NNW,331,8.0,9.0,77,0.00,,,0.00,WeatherCatV1.02B3,2013-02-15 15:40:00,
2013-02-15 09:45:00,49.8,41.8,30.22,NW,325,9.0,10.0,74,0.00,,,0.00,WeatherCatV1.02B3,2013-02-15 15:45:00,
2013-02-15 09:50:00,50.1,42.8,30.23,NW,315,14.0,16.0,76,0.00,,,0.00,WeatherCatV1.02B3,2013-02-15 15:50:00,
2013-02-15 09:55:00,50.2,42.2,30.22,NNW,346,13.0,17.0,74,0.00,,,0.00,WeatherCatV1.02B3,2013-02-15 15:55:00,
2013-02-15 10:00:00,49.9,42.3,30.22,NW,325,10.0,14.0,75,0.00,,,0.00,WeatherCatV1.02B3,2013-02-15 16:00:00,
2013-02-15 10:05:00,50.2,42.2,30.22,NNW,347,10.0,14.0,74,0.00,,,0.00,WeatherCatV1.02B3,2013-02-15 16:05:00,
2013-02-15 10:10:00,50.4,42.4,30.22,NNW,340,12.0,16.0,74,0.00,,,0.00,WeatherCatV1.02B3,2013-02-15 16:10:00,
2013-02-15 10:15:00,50.4,42.4,30.22,NNW,347,10.0,11.0,74,0.00,,,0.00,WeatherCatV1.02B3,2013-02-15 16:15:00,
2013-02-15 10:20:00,50.7,41.3,30.22,NNE,22,14.0,18.0,70,0.00,,,0.00,WeatherCatV1.02B3,2013-02-15 16:20:00,
2013-02-15 10:25:00,50.5,40.3,30.22,NNE,13,14.0,18.0,68,0.00,,,0.00,WeatherCatV1.02B3,2013-02-15 16:25:00,
2013-02-15 10:30:00,50.3,40.9,30.22,North,5,11.0,17.0,70,0.00,,,0.00,WeatherCatV1.02B3,2013-02-15 16:30:00,
2013-02-15 10:35:00,50.4,40.6,30.22,NNW,340,11.0,17.0,69,0.00,,,0.00,WeatherCatV1.02B3,2013-02-15 16:35:00,
2013-02-15 10:40:00,50.4,41.4,30.22,NW,325,12.0,16.0,71,0.00,,,0.00,WeatherCatV1.02B3,2013-02-15 16:40:00,
2013-02-15 10:45:00,50.6,40.8,30.22,North,11,9.0,11.0,69,0.00,,,0.00,WeatherCatV1.02B3,2013-02-15 16:45:00,
2013-02-15 10:50:00,51.2,41.0,30.23,North,0,12.0,17.0,68,0.00,,,0.00,WeatherCatV1.02B3,2013-02-15 16:50:00,
2013-02-15 10:55:00,51.3,41.5,30.22,North,5,12.0,12.0,69,0.00,,,0.00,WeatherCatV1.02B3,2013-02-15 16:55:00,
2013-02-15 11:00:00,51.7,41.5,30.22,North,350,9.0,16.0,68,0.00,,,0.00,WeatherCatV1.02B3,2013-02-15 17:00:00,
2013-02-15 11:05:00,51.5,41.7,30.22,NW,316,10.0,10.0,69,0.00,,,0.00,WeatherCatV1.02B3,2013-02-15 17:05:00,
2013-02-15 11:10:00,51.6,40.2,30.23,NNW,345,15.0,15.0,65,0.00,,,0.00,WeatherCatV1.02B3,2013-02-15 17:10:00,
2013-02-15 11:15:00,51.6,40.2,30.22,NNW,336,13.0,14.0,65,0.00,,,0.00,WeatherCatV1.02B3,2013-02-15 17:15:00,
2013-02-15 11:20:00,52.0,41.4,30.22,NNW,342,10.0,13.0,67,0.00,,,0.00,WeatherCatV1.02B3,2013-02-15 17:20:00,
2013-02-15 11:25:00,51.8,41.2,30.22,NNW,329,10.0,13.0,67,0.00,,,0.00,WeatherCatV1.02B3,2013-02-15 17:25:00,
2013-02-15 11:30:00,51.8,40.4,30.22,NNW,335,10.0,16.0,65,0.00,,,0.00,WeatherCatV1.02B3,2013-02-15 17:30:00,
2013-02-15 11:35:00,51.8,40.8,30.22,NNW,333,10.0,16.0,66,0.00,,,0.00,WeatherCatV1.02B3,2013-02-15 17:35:00,
2013-02-15 11:40:00,51.9,41.3,30.22,NW,319,12.0,15.0,67,0.00,,,0.00,WeatherCatV1.02B3,2013-02-15 17:40:00,
2013-02-15 11:45:00,52.0,41.4,30.22,NNW,335,14.0,16.0,67,0.00,,,0.00,WeatherCatV1.02B3,2013-02-15 17:45:00,
2013-02-15 11:50:00,51.7,41.1,30.22,North,350,12.0,14.0,67,0.00,,,0.00,WeatherCatV1.02B3,2013-02-15 17:50:00,
2013-02-15 11:55:00,52.0,40.6,30.22,North,355,13.0,16.0,65,0.00,,,0.00,WeatherCatV1.02B3,2013-02-15 17:55:00,
2013-02-15 12:00:00,51.7,39.5,30.22,NNW,344,11.0,14.0,63,0.00,,,0.00,WeatherCatV1.02B3,2013-02-15 18:00:00,
2013-02-15 12:05:00,52.1,40.3,30.21,NNW,327,15.0,16.0,64,0.00,,,0.00,WeatherCatV1.02B3,2013-02-15 18:05:00,
2013-02-15 12:10:00,52.6,40.8,30.21,NNW,338,13.0,14.0,64,0.00,,,0.00,WeatherCatV1.02B3,2013-02-15 18:10:00,
2013-02-15 12:15:00,52.8,40.1,30.21,NNW,340,11.0,15.0,62,0.00,,,0.00,WeatherCatV1.02B3,2013-02-15 18:15:00,
2013-02-15 12:20:00,53.1,38.3,30.21,NW,313,11.0,15.0,57,0.00,,,0.00,WeatherCatV1.02B3,2013-02-15 18:20:00,
2013-02-15 12:25:00,53.2,38.8,30.21,NNW,344,12.0,18.0,58,0.00,,,0.00,WeatherCatV1.02B3,2013-02-15 18:25:00,
2013-02-15 12:30:00,53.0,37.3,30.20,NNW,346,15.0,18.0,55,0.00,,,0.00,WeatherCatV1.02B3,2013-02-15 18:30:00,
2013-02-15 12:35:00,53.1,39.2,30.20,NNW,334,12.0,14.0,59,0.00,,,0.00,WeatherCatV1.02B3,2013-02-15 18:35:00,
2013-02-15 12:40:00,53.3,37.1,30.20,NNW,339,14.0,18.0,54,0.00,,,0.00,WeatherCatV1.02B3,2013-02-15 18:40:00,
2013-02-15 12:45:00,53.6,38.7,30.20,NNW,327,16.0,17.0,57,0.00,,,0.00,WeatherCatV1.02B3,2013-02-15 18:45:00,
2013-02-15 12:50:00,53.5,38.2,30.20,NNW,343,9.0,14.0,56,0.00,,,0.00,WeatherCatV1.02B3,2013-02-15 18:50:00,
2013-02-15 12:55:00,53.3,37.1,30.20,NNE,13,12.0,20.0,54,0.00,,,0.00,WeatherCatV1.02B3,2013-02-15 18:55:00,
2013-02-15 13:00:00,53.4,37.2,30.20,NNW,342,10.0,14.0,54,0.00,,,0.00,WeatherCatV1.02B3,2013-02-15 19:00:00,
2013-02-15 13:05:00,52.9,37.6,30.20,NNW,340,12.0,13.0,56,0.00,,,0.00,WeatherCatV1.02B3,2013-02-15 19:05:00,
2013-02-15 13:10:00,53.0,37.7,30.19,North,0,13.0,13.0,56,0.00,,,0.00,WeatherCatV1.02B3,2013-02-15 19:10:00,
2013-02-15 13:15:00,53.4,38.1,30.19,North,355,15.0,18.0,56,0.00,,,0.00,WeatherCatV1.02B3,2013-02-15 19:15:00,
2013-02-15 13:20:00,53.6,39.2,30.19,NW,320,13.0,19.0,58,0.00,,,0.00,WeatherCatV1.02B3,2013-02-15 19:20:00,
2013-02-15 13:25:00,53.3,38.0,30.19,NW,323,10.0,17.0,56,0.00,,,0.00,WeatherCatV1.02B3,2013-02-15 19:25:00,
2013-02-15 13:30:00,53.3,39.3,30.19,NW,319,10.0,14.0,59,0.00,,,0.00,WeatherCatV1.02B3,2013-02-15 19:30:00,
2013-02-15 13:35:00,53.2,38.8,30.19,North,5,12.0,14.0,58,0.00,,,0.00,WeatherCatV1.02B3,2013-02-15 19:35:00,
2013-02-15 13:40:00,53.3,38.9,30.19,North,0,12.0,13.0,58,0.00,,,0.00,WeatherCatV1.02B3,2013-02-15 19:40:00,
2013-02-15 13:45:00,53.6,38.7,30.19,NW,323,13.0,17.0,57,0.00,,,0.00,WeatherCatV1.02B3,2013-02-15 19:45:00,
2013-02-15 13:50:00,53.8,38.9,30.19,NNW,329,14.0,15.0,57,0.00,,,0.00,WeatherCatV1.02B3,2013-02-15 19:50:00,
2013-02-15 13:55:00,53.5,39.1,30.18,NNW,333,16.0,16.0,58,0.00,,,0.00,WeatherCatV1.02B3,2013-02-15 19:55:00,
2013-02-15 14:00:00,53.3,38.9,30.18,NW,314,10.0,14.0,58,0.00,,,0.00,WeatherCatV1.02B3,2013-02-15 20:00:00,
2013-02-15 14:05:00,53.3,39.3,30.18,NNW,332,10.0,15.0,59,0.00,,,0.00,WeatherCatV1.02B3,2013-02-15 20:05:00,
2013-02-15 14:10:00,53.2,36.0,30.18,North,11,13.0,17.0,52,0.00,,,0.00,WeatherCatV1.02B3,2013-02-15 20:10:00,
2013-02-15 14:15:00,53.1,38.3,30.18,NNW,341,10.0,15.0,57,0.00,,,0.00,WeatherCatV1.02B3,2013-02-15 20:15:00,
2013-02-15 14:20:00,53.4,37.2,30.18,North,0,13.0,13.0,54,0.00,,,0.00,WeatherCatV1.02B3,2013-02-15 20:20:00,
2013-02-15 14:25:00,53.4,36.2,30.18,NNW,329,10.0,14.0,52,0.00,,,0.00,WeatherCatV1.02B3,2013-02-15 20:25:00,
2013-02-15 14:30:00,53.1,33.4,30.18,NNW,332,15.0,17.0,47,0.00,,,0.00,WeatherCatV1.02B3,2013-02-15 20:30:00,
2013-02-15 14:35:00,52.9,35.3,30.18,NNW,333,15.0,18.0,51,0.00,,,0.00,WeatherCatV1.02B3,2013-02-15 20:35:00,
2013-02-15 14:40:00,52.8,35.7,30.18,NNW,341,9.0,12.0,52,0.00,,,0.00,WeatherCatV1.02B3,2013-02-15 20:40:00,
2013-02-15 14:45:00,52.7,36.1,30.18,NNW,343,7.0,10.0,53,0.00,,,0.00,WeatherCatV1.02B3,2013-02-15 20:45:00,
2013-02-15 14:50:00,53.1,35.9,30.18,NW,306,10.0,13.0,52,0.00,,,0.00,WeatherCatV1.02B3,2013-02-15 20:50:00,
2013-02-15 14:55:00,53.3,36.6,30.18,NW,319,12.0,14.0,53,0.00,,,0.00,WeatherCatV1.02B3,2013-02-15 20:55:00,
2013-02-15 15:00:00,53.0,34.9,30.18,NNE,30,9.0,14.0,50,0.00,,,0.00,WeatherCatV1.02B3,2013-02-15 21:00:00,
2013-02-15 15:05:00,53.1,35.5,30.18,NW,319,9.0,14.0,51,0.00,,,0.00,WeatherCatV1.02B3,2013-02-15 21:05:00,
2013-02-15 15:10:00,53.0,36.8,30.18,North,5,12.0,15.0,54,0.00,,,0.00,WeatherCatV1.02B3,2013-02-15 21:10:00,
2013-02-15 15:15:00,52.9,35.3,30.18,NW,321,10.0,14.0,51,0.00,,,0.00,WeatherCatV1.02B3,2013-02-15 21:15:00,
2013-02-15 15:20:00,52.6,34.0,30.18,NNW,344,10.0,14.0,49,0.00,,,0.00,WeatherCatV1.02B3,2013-02-15 21:20:00,
2013-02-15 15:25:00,52.4,35.3,30.18,NNW,329,9.0,11.0,52,0.00,,,0.00,WeatherCatV1.02B3,2013-02-15 21:25:00,
2013-02-15 15:30:00,52.3,35.7,30.18,NW,311,8.0,11.0,53,0.00,,,0.00,WeatherCatV1.02B3,2013-02-15 21:30:00,
2013-02-15 15:35:00,52.3,33.7,30.18,NW,324,8.0,9.0,49,0.00,,,0.00,WeatherCatV1.02B3,2013-02-15 21:35:00,
2013-02-15 15:40:00,52.4,34.8,30.18,North,355,10.0,17.0,51,0.00,,,0.00,WeatherCatV1.02B3,2013-02-15 21:40:00,
2013-02-15 15:45:00,52.1,34.0,30.18,NW,319,10.0,13.0,50,0.00,,,0.00,WeatherCatV1.02B3,2013-02-15 21:45:00,
2013-02-15 15:50:00,51.9,33.3,30.18,NNW,345,11.0,12.0,49,0.00,,,0.00,WeatherCatV1.02B3,2013-02-15 21:50:00,
2013-02-15 15:55:00,51.7,34.2,30.18,NNW,336,10.0,13.0,51,0.00,,,0.00,WeatherCatV1.02B3,2013-02-15 21:55:00,
2013-02-15 16:00:00,51.5,34.5,30.18,NNW,343,6.0,12.0,52,0.00,,,0.00,WeatherCatV1.02B3,2013-02-15 22:00:00,
2013-02-15 16:05:00,51.4,33.9,30.18,North,0,10.0,14.0,51,0.00,,,0.00,WeatherCatV1.02B3,2013-02-15 22:05:00,
2013-02-15 16:10:00,51.2,32.7,30.18,NNE,12,7.0,12.0,49,0.00,,,0.00,WeatherCatV1.02B3,2013-02-15 22:10:00,
2013-02-15 16:12:00,51.2,32.2,30.19,NNW,338,10.0,13.0,48,0.00,,,0.00,WeatherCatV1.02B3,2013-02-15 22:12:00,
2013-02-15 16:17:00,51.1,33.1,30.18,North,350,12.0,12.0,50,0.00,,,0.00,WeatherCatV1.02B3,2013-02-15 22:17:00,
2013-02-15 16:22:00,50.9,32.9,30.19,NNW,347,13.0,14.0,50,0.00,,,0.00,WeatherCatV1.02B3,2013-02-15 22:22:00,
2013-02-15 16:27:00,50.8,34.3,30.19,North,355,12.0,15.0,53,0.00,,,0.00,WeatherCatV1.02B3,2013-02-15 22:27:00,
2013-02-15 16:32:00,50.5,34.5,30.19,North,11,7.0,13.0,54,0.00,,,0.00,WeatherCatV1.02B3,2013-02-15 22:32:00,
2013-02-15 16:37:00,50.3,33.8,30.19,North,5,13.0,14.0,53,0.00,,,0.00,WeatherCatV1.02B3,2013-02-15 22:37:00,
2013-02-15 16:42:00,50.2,34.7,30.19,NNW,348,11.0,17.0,55,0.00,,,0.00,WeatherCatV1.02B3,2013-02-15 22:42:00,
2013-02-15 16:47:00,50.0,34.0,30.19,North,5,10.0,12.0,54,0.00,,,0.00,WeatherCatV1.02B3,2013-02-15 22:47:00,
2013-02-15 16:52:00,49.9,33.5,30.19,North,355,11.0,13.0,53,0.00,,,0.00,WeatherCatV1.02B3,2013-02-15 22:52:00,
2013-02-15 16:57:00,49.7,33.3,30.19,North,355,13.0,14.0,53,0.00,,,0.00,WeatherCatV1.02B3,2013-02-15 22:57:00,
2013-02-15 17:00:00,49.6,33.2,30.19,North,357,10.0,12.0,53,0.00,,,0.00,WeatherCatV1.02B3,2013-02-15 23:00:00,
2013-02-15 17:02:00,49.6,33.2,30.19,North,5,9.0,14.0,53,0.00,,,0.00,WeatherCatV1.02B3,2013-02-15 23:02:00,
2013-02-15 17:05:00,49.5,33.6,30.19,North,351,10.0,10.0,54,0.00,,,0.00,WeatherCatV1.02B3,2013-02-15 23:05:00,
2013-02-15 17:10:00,49.4,34.4,30.19,North,350,8.0,8.0,56,0.00,,,0.00,WeatherCatV1.02B3,2013-02-15 23:10:00,
2013-02-15 17:15:00,49.4,33.9,30.20,North,351,7.0,10.0,55,0.00,,,0.00,WeatherCatV1.02B3,2013-02-15 23:15:00,
2013-02-15 17:20:00,49.5,34.5,30.20,North,355,7.0,9.0,56,0.00,,,0.00,WeatherCatV1.02B3,2013-02-15 23:20:00,
2013-02-15 17:25:00,49.5,33.6,30.19,North,359,8.0,10.0,54,0.00,,,0.00,WeatherCatV1.02B3,2013-02-15 23:25:00,
2013-02-15 17:30:00,49.4,35.2,30.19,North,356,8.0,8.0,58,0.00,,,0.00,WeatherCatV1.02B3,2013-02-15 23:30:00,
2013-02-15 17:35:00,49.2,34.2,30.20,North,352,7.0,14.0,56,0.00,,,0.00,WeatherCatV1.02B3,2013-02-15 23:35:00,
2013-02-15 17:40:00,49.0,34.0,30.20,NNW,347,7.0,9.0,56,0.00,,,0.00,WeatherCatV1.02B3,2013-02-15 23:40:00,
2013-02-15 17:45:00,48.7,34.6,30.20,North,352,7.0,8.0,58,0.00,,,0.00,WeatherCatV1.02B3,2013-02-15 23:45:00,
2013-02-15 17:50:00,48.5,33.1,30.20,North,355,6.0,10.0,55,0.00,,,0.00,WeatherCatV1.02B3,2013-02-15 23:50:00,
2013-02-15 17:55:00,48.3,33.3,30.20,North,352,7.0,9.0,56,0.00,,,0.00,WeatherCatV1.02B3,2013-02-15 23:55:00,
2013-02-15 18:00:00,48.1,33.6,30.20,North,350,7.0,7.0,57,0.00,,,0.00,WeatherCatV1.02B3,2013-02-16 00:00:00,
2013-02-15 18:05:00,47.9,33.0,30.20,NNW,347,7.0,8.0,56,0.00,,,0.00,WeatherCatV1.02B3,2013-02-16 00:05:00,
2013-02-15 18:10:00,47.8,33.7,30.20,NNW,347,7.0,10.0,58,0.00,,,0.00,WeatherCatV1.02B3,2013-02-16 00:10:00,
2013-02-15 18:15:00,47.7,34.1,30.20,NNW,345,8.0,10.0,59,0.00,,,0.00,WeatherCatV1.02B3,2013-02-16 00:15:00,
2013-02-15 18:20:00,47.4,33.8,30.21,NNW,345,7.0,9.0,59,0.00,,,0.00,WeatherCatV1.02B3,2013-02-16 00:20:00,
2013-02-15 18:25:00,47.1,33.9,30.20,NNW,341,7.0,10.0,60,0.00,,,0.00,WeatherCatV1.02B3,2013-02-16 00:25:00,
2013-02-15 18:37:00,46.9,34.6,30.21,NNW,345,7.0,8.0,62,0.00,,,0.00,WeatherCatV1.02B3,2013-02-16 00:37:00,
2013-02-15 18:42:00,46.4,34.1,30.21,NNW,335,8.0,11.0,62,0.00,,,0.00,WeatherCatV1.02B3,2013-02-16 00:42:00,
2013-02-15 18:47:00,46.2,34.3,30.22,NNW,334,7.0,10.0,63,0.00,,,0.00,WeatherCatV1.02B3,2013-02-16 00:47:00,
2013-02-15 18:52:00,46.2,33.9,30.22,NNW,337,6.0,10.0,62,0.00,,,0.00,WeatherCatV1.02B3,2013-02-16 00:52:00,
2013-02-15 18:57:00,46.1,34.2,30.22,NNW,335,6.0,7.0,63,0.00,,,0.00,WeatherCatV1.02B3,2013-02-16 00:57:00,
2013-02-15 19:02:00,45.9,33.6,30.22,North,349,9.0,10.0,62,0.00,,,0.00,WeatherCatV1.02B3,2013-02-16 01:02:00,
2013-02-15 19:07:00,45.7,34.2,30.22,North,349,6.0,8.0,64,0.00,,,0.00,WeatherCatV1.02B3,2013-02-16 01:07:00,
2013-02-15 19:12:00,45.4,33.9,30.22,NNW,346,7.0,9.0,64,0.00,,,0.00,WeatherCatV1.02B3,2013-02-16 01:12:00,
2013-02-15 19:17:00,45.2,33.8,30.22,NNW,347,8.0,8.0,64,0.00,,,0.00,WeatherCatV1.02B3,2013-02-16 01:17:00,
2013-02-15 19:22:00,45.0,34.0,30.22,NNW,346,6.0,8.0,65,0.00,,,0.00,WeatherCatV1.02B3,2013-02-16 01:22:00,
2013-02-15 19:27:00,44.8,34.1,30.22,NNW,346,5.0,9.0,66,0.00,,,0.00,WeatherCatV1.02B3,2013-02-16 01:27:00,
2013-02-15 19:32:00,44.8,33.8,30.22,North,349,8.0,11.0,65,0.00,,,0.00,WeatherCatV1.02B3,2013-02-16 01:32:00,
2013-02-15 19:37:00,44.8,33.8,30.23,North,350,8.0,10.0,65,0.00,,,0.00,WeatherCatV1.02B3,2013-02-16 01:37:00,
2013-02-15 19:42:00,44.8,33.8,30.23,North,349,8.0,11.0,65,0.00,,,0.00,WeatherCatV1.02B3,2013-02-16 01:42:00,
2013-02-15 19:47:00,44.6,33.6,30.23,NNW,344,8.0,10.0,65,0.00,,,0.00,WeatherCatV1.02B3,2013-02-16 01:47:00,
2013-02-15 19:52:00,44.5,33.5,30.23,NNW,346,7.0,10.0,65,0.00,,,0.00,WeatherCatV1.02B3,2013-02-16 01:52:00,
2013-02-15 19:57:00,44.4,33.4,30.23,North,349,8.0,10.0,65,0.00,,,0.00,WeatherCatV1.02B3,2013-02-16 01:57:00,
2013-02-15 20:02:00,44.1,33.9,30.23,NNW,346,6.0,9.0,67,0.00,,,0.00,WeatherCatV1.02B3,2013-02-16 02:02:00,
2013-02-15 20:07:00,43.8,33.6,30.23,NNW,341,7.0,8.0,67,0.00,,,0.00,WeatherCatV1.02B3,2013-02-16 02:07:00,
2013-02-15 20:12:00,43.7,33.8,30.23,NNW,336,8.0,9.0,68,0.00,,,0.00,WeatherCatV1.02B3,2013-02-16 02:12:00,
2013-02-15 20:17:00,43.5,33.7,30.23,NNW,346,6.0,10.0,68,0.00,,,0.00,WeatherCatV1.02B3,2013-02-16 02:17:00,
2013-02-15 20:22:00,43.3,33.8,30.23,NNW,333,7.0,8.0,69,0.00,,,0.00,WeatherCatV1.02B3,2013-02-16 02:22:00,
2013-02-15 20:27:00,43.2,33.4,30.23,NNW,344,9.0,9.0,68,0.00,,,0.00,WeatherCatV1.02B3,2013-02-16 02:27:00,
2013-02-15 20:32:00,43.0,33.5,30.23,NNW,345,6.0,9.0,69,0.00,,,0.00,WeatherCatV1.02B3,2013-02-16 02:32:00,
2013-02-15 20:37:00,42.7,33.6,30.23,NNW,341,8.0,10.0,70,0.00,,,0.00,WeatherCatV1.02B3,2013-02-16 02:37:00,
2013-02-15 20:42:00,42.7,33.2,30.23,North,5,7.0,9.0,69,0.00,,,0.00,WeatherCatV1.02B3,2013-02-16 02:42:00,
2013-02-15 20:47:00,42.5,33.4,30.24,NNW,343,5.0,8.0,70,0.00,,,0.00,WeatherCatV1.02B3,2013-02-16 02:47:00,
2013-02-15 20:52:00,42.4,33.3,30.24,NNW,341,5.0,9.0,70,0.00,,,0.00,WeatherCatV1.02B3,2013-02-16 02:52:00,
2013-02-15 20:57:00,42.3,33.6,30.24,NNW,328,8.0,8.0,71,0.00,,,0.00,WeatherCatV1.02B3,2013-02-16 02:57:00,
2013-02-15 21:02:00,42.1,33.4,30.24,NNW,340,6.0,9.0,71,0.00,,,0.00,WeatherCatV1.02B3,2013-02-16 03:02:00,
2013-02-15 21:07:00,42.0,33.3,30.24,NNW,333,7.0,9.0,71,0.00,,,0.00,WeatherCatV1.02B3,2013-02-16 03:07:00,
2013-02-15 21:12:00,41.8,33.4,30.24,NNW,328,7.0,9.0,72,0.00,,,0.00,WeatherCatV1.02B3,2013-02-16 03:12:00,
2013-02-15 21:17:00,41.6,33.3,30.24,NNW,338,6.0,7.0,72,0.00,,,0.00,WeatherCatV1.02B3,2013-02-16 03:17:00,
2013-02-15 21:22:00,41.4,33.1,30.24,NNW,343,5.0,7.0,72,0.00,,,0.00,WeatherCatV1.02B3,2013-02-16 03:22:00,
2013-02-15 21:27:00,41.3,33.3,30.24,NNW,338,5.0,6.0,73,0.00,,,0.00,WeatherCatV1.02B3,2013-02-16 03:27:00,
2013-02-15 21:32:00,41.1,33.1,30.24,NNW,340,6.0,6.0,73,0.00,,,0.00,WeatherCatV1.02B3,2013-02-16 03:32:00,
2013-02-15 21:37:00,41.0,32.7,30.24,NNW,338,5.0,7.0,72,0.00,,,0.00,WeatherCatV1.02B3,2013-02-16 03:37:00,
2013-02-15 21:42:00,40.9,32.9,30.24,NNW,334,4.0,6.0,73,0.00,,,0.00,WeatherCatV1.02B3,2013-02-16 03:42:00,
2013-02-15 21:47:00,40.7,32.7,30.24,NNW,329,6.0,7.0,73,0.00,,,0.00,WeatherCatV1.02B3,2013-02-16 03:47:00,
2013-02-15 21:52:00,40.7,32.4,30.24,NNW,338,5.0,8.0,72,0.00,,,0.00,WeatherCatV1.02B3,2013-02-16 03:52:00,
2013-02-15 21:57:00,40.7,32.4,30.24,NNW,329,5.0,8.0,72,0.00,,,0.00,WeatherCatV1.02B3,2013-02-16 03:57:00,
2013-02-15 22:02:00,40.6,32.6,30.25,NNW,331,6.0,6.0,73,0.00,,,0.00,WeatherCatV1.02B3,2013-02-16 04:02:00,
2013-02-15 22:07:00,40.5,32.5,30.25,NNW,342,6.0,7.0,73,0.00,,,0.00,WeatherCatV1.02B3,2013-02-16 04:07:00,
2013-02-15 22:12:00,40.5,31.8,30.24,NNW,328,7.0,9.0,71,0.00,,,0.00,WeatherCatV1.02B3,2013-02-16 04:12:00,
2013-02-15 22:17:00,40.4,32.4,30.24,NNW,328,6.0,7.0,73,0.00,,,0.00,WeatherCatV1.02B3,2013-02-16 04:17:00,
2013-02-15 22:22:00,40.2,32.2,30.25,NNW,333,4.0,7.0,73,0.00,,,0.00,WeatherCatV1.02B3,2013-02-16 04:22:00,
2013-02-15 22:27:00,40.2,31.9,30.24,NNW,330,4.0,8.0,72,0.00,,,0.00,WeatherCatV1.02B3,2013-02-16 04:27:00,
2013-02-15 22:32:00,40.0,32.1,30.24,NW,325,5.0,6.0,73,0.00,,,0.00,WeatherCatV1.02B3,2013-02-16 04:32:00,
2013-02-15 22:37:00,39.8,32.2,30.24,NW,325,5.0,5.0,74,0.00,,,0.00,WeatherCatV1.02B3,2013-02-16 04:37:00,
2013-02-15 22:42:00,39.7,32.1,30.24,NW,322,4.0,5.0,74,0.00,,,0.00,WeatherCatV1.02B3,2013-02-16 04:42:00,
2013-02-15 22:47:00,39.4,32.1,30.24,NW,321,4.0,4.0,75,0.00,,,0.00,WeatherCatV1.02B3,2013-02-16 04:47:00,
2013-02-15 22:52:00,39.2,32.0,30.24,NW,319,4.0,5.0,75,0.00,,,0.00,WeatherCatV1.02B3,2013-02-16 04:52:00,
2013-02-15 22:57:00,39.1,31.9,30.24,NW,325,4.0,5.0,75,0.00,,,0.00,WeatherCatV1.02B3,2013-02-16 04:57:00,
2013-02-15 23:00:00,39.1,32.2,30.24,NW,324,4.0,4.0,76,0.00,,,0.00,WeatherCatV1.02B3,2013-02-16 05:00:00,
2013-02-15 23:05:00,38.9,31.7,30.24,NNW,328,4.0,6.0,75,0.00,,,0.00,WeatherCatV1.02B3,2013-02-16 05:05:00,
2013-02-15 23:10:00,39.0,31.8,30.24,NW,318,5.0,6.0,75,0.00,,,0.00,WeatherCatV1.02B3,2013-02-16 05:10:00,
2013-02-15 23:15:00,39.0,31.8,30.24,NW,323,7.0,7.0,75,0.00,,,0.00,WeatherCatV1.02B3,2013-02-16 05:15:00,
2013-02-15 23:20:00,39.0,31.4,30.24,NW,323,5.0,7.0,74,0.00,,,0.00,WeatherCatV1.02B3,2013-02-16 05:20:00,
2013-02-15 23:25:00,38.9,31.3,30.24,NW,323,5.0,5.0,74,0.00,,,0.00,WeatherCatV1.02B3,2013-02-16 05:25:00,
2013-02-15 23:30:00,38.9,31.3,30.25,NW,326,5.0,7.0,74,0.00,,,0.00,WeatherCatV1.02B3,2013-02-16 05:30:00,
2013-02-15 23:35:00,39.0,31.4,30.25,NW,324,5.0,8.0,74,0.00,,,0.00,WeatherCatV1.02B3,2013-02-16 05:35:00,
2013-02-15 23:40:00,39.0,31.4,30.25,NW,321,6.0,7.0,74,0.00,,,0.00,WeatherCatV1.02B3,2013-02-16 05:40:00,
2013-02-15 23:45:00,38.9,31.7,30.24,NW,326,7.0,8.0,75,0.00,,,0.00,WeatherCatV1.02B3,2013-02-16 05:45:00,
2013-02-15 23:50:00,39.0,31.8,30.24,NNW,327,5.0,6.0,75,0.00,,,0.00,WeatherCatV1.02B3,2013-02-16 05:50:00,
2013-02-15 23:55:00,38.7,31.8,30.24,NW,324,4.0,6.0,76,0.00,,,0.00,WeatherCatV1.02B3,2013-02-16 05:55:00,